Location: Altoona
(40.5167°N, 78.4000°W)
Time: 17:17:23
(UTC-05:00)

Daily predictions for brighter satellites

Satellite Brightness Start Highest point End
(mag) Time Altitude Azimuth Time Altitude Azimuth Time Altitude Azimuth
CZ-2C R/B 3.9 17:11:10 10° N 17:15:39 76° WNW 17:20:09 10° SSW
USA 234 3.5 17:10:16 10° NE 17:16:43 59° SE 17:23:09 10° SSW
Cosmos 2082 Rocket 2.6 17:11:43 10° N 17:17:02 40° ENE 17:22:22 10° SE
CRYOSAT 2 4.4 17:13:56 10° N 17:18:52 74° E 17:23:44 10° S
YAOGAN 1 3.0 17:15:08 10° SE 17:19:10 40° ENE 17:23:14 10° N
PAYLOAD A 3.9 17:15:42 10° SSE 17:20:33 77° ENE 17:25:38 10° N
Cosmos 1500 3.4 17:21:01 10° N 17:24:45 47° E 17:28:28 10° SSE
CZ-2C R/B 2.6 17:21:40 10° SSE 17:26:36 59° ENE 17:31:41 10° N
Cosmos 1743 3.8 17:23:59 10° NNE 17:27:11 24° ENE 17:30:21 10° SE
Nadezhda 3 Rocket 4.3 17:23:26 10° SSE 17:29:17 46° E 17:35:14 10° NNE
NOSS 3-4 (A) 4.3 17:23:14 10° NNW 17:29:35 36° NE 17:36:16 10° ESE
NOSS 3-4 (C) 4.4 17:23:21 10° NNW 17:29:41 36° NE 17:36:21 10° ESE
Cosmos 1455 Rocket 3.6 17:31:30 10° NNW 17:35:53 63° W 17:40:15 10° S
Delta 2 Rocket 4.1 17:37:43 10° WSW 17:41:02 38° S 17:44:40 10° ESE
SKYMED 2 4.4 17:40:09 10° NE 17:43:58 30° E 17:47:48 10° SSE
ATLAS 2AS CENTAUR R/B 4.4 17:37:01 10° NW 17:44:26 43° WSW 17:51:21 10° S
Cosmos 2056 Rocket 4.3 17:40:27 10° SSE 17:45:07 31° E 17:49:18 12° NE
Cosmos 1484 Rocket 3.4 17:41:52 10° SE 17:45:10 30° ENE 17:48:28 10° N
GRACE-1 4.5 17:45:16 10° SSE 17:47:49 34° E 17:50:18 11° NNE
SJ-7 4.4 17:45:00 10° SSE 17:49:14 85° ENE 17:53:30 10° N
Cosmos 1809 Rocket 4.4 17:43:43 10° N 17:49:53 78° E 17:55:59 10° SSE
SMAP 3.2 17:46:37 10° S 17:51:15 82° WSW 17:55:56 10° NNW
Cosmos 2369 Rocket 3.8 17:52:15 10° SE 17:54:56 14° E 17:54:58 14° E
CORIOLIS 4.2 17:49:53 10° SSE 17:55:18 88° WSW 18:00:43 10° NNW
Cosmos 1975 3.8 17:53:09 10° NNW 17:57:05 51° W 18:00:59 10° S
SL-24 DEB 4.2 17:52:32 10° N 17:57:17 82° E 18:01:57 10° S
Cosmos 1624 Rocket 4.4 17:52:59 10° S 17:57:52 43° ESE 18:02:04 14° NE
Meteor 1-13 Rocket 4.2 17:56:57 10° S 18:02:39 83° E 18:08:31 10° N
Meteor 2-4 Rocket 3.8 17:58:05 10° SSE 18:03:11 46° E 18:08:17 10° NNE
Okean 1-7 Rocket 3.5 17:59:08 10° S 18:03:37 75° E 18:08:06 10° N
Cosmos 1371 Rocket 4.1 17:58:32 10° S 18:03:49 62° ESE 18:08:54 11° NNE
Cosmos 1726 Rocket 4.4 18:00:12 10° NNE 18:04:04 28° ENE 18:07:55 10° SE
CZ-4 R/B 3.1 18:03:24 10° SSW 18:07:17 37° W 18:11:08 10° NNW
Tiangong 1 1.2 18:05:29 10° W 18:08:28 54° N 18:09:19 38° NE
ISS -0.9 18:09:07 10° NNW 18:10:32 12° N 18:10:47 12° N
SPOT 3 Rocket 4.4 18:06:36 10° S 18:11:40 53° W 18:16:43 10° NNW
MSX 3.9 18:06:18 10° SSE 18:12:03 83° WSW 18:17:50 10° NNW
Cosmos 1934 Rocket 4.1 18:06:34 10° N 18:12:37 51° E 18:18:44 10° SSE
Cosmos 1340 4.0 18:16:53 10° SSE 18:18:56 23° SE 18:18:56 23° SE
Cosmos 1535 Rocket 4.4 18:16:36 10° N 18:22:54 78° E 18:29:06 10° S
Cosmos 1606 Rocket 3.6 18:19:20 10° N 18:23:44 54° E 18:28:07 10° SSE
NOSS 2-1 (D) 4.3 18:23:09 10° WSW 18:26:50 44° NW 18:29:25 20° NNE
METEOR-M 4.4 18:22:12 10° SE 18:27:12 42° ENE 18:32:13 10° N
NOSS 2-1 (C) 4.3 18:23:48 10° SW 18:27:30 45° NW 18:30:04 20° NNE
COSMO-SKYMED 1 2.6 18:28:03 12° N 18:32:09 78° WNW 18:36:29 10° SSW
Cosmos 1452 Rocket 4.1 18:29:15 10° SSE 18:33:52 35° ESE 18:33:52 35° ESE
Cosmos 2239 Rocket 4.5 18:28:31 10° N 18:34:44 83° W 18:40:52 10° S
Cosmos 1190 Rocket 3.9 18:29:50 10° NNW 18:35:03 67° ENE 18:40:13 10° SSE
Cosmos 2278 Rocket 4.4 18:31:29 10° W 18:35:37 20° NW 18:39:47 10° N
GEOS 3 Rocket 4.0 18:36:10 38° ENE 18:36:36 39° NE 18:41:19 10° NNW
Cosmos 1025 Rocket 3.3 18:34:12 10° SSW 18:38:33 70° W 18:42:27 13° N
Cosmos 1666 2.7 18:35:07 10° N 18:39:00 82° W 18:42:53 10° S
Cosmos 1821 Rocket 4.2 18:41:15 10° NNW 18:47:18 69° W 18:53:21 10° S
Cosmos 1833 Rocket 4.0 18:46:24 10° NW 18:51:38 40° WSW 18:56:49 10° S
Cosmos 1605 Rocket 3.8 18:51:51 10° N 18:58:10 81° E 19:04:20 10° S
USA 234 4.0 18:56:14 26° NNE 18:59:35 45° NNW 19:05:42 10° W
CZ-3B DEB 4.0 18:55:06 10° WNW 19:00:10 34° N 19:04:32 25° NE
Cosmos 2082 Rocket 4.2 18:56:08 10° NW 19:00:56 29° WSW 19:05:42 10° SSW
Meteor 1-28 Rocket 4.1 19:06:27 46° WNW 19:06:40 46° WNW 19:10:18 10° SSW
BREEZE M DEB (TANK) 3.7 19:08:33 10° W 19:13:17 34° NW 19:13:17 34° NW
NOSS 3-4 (A) 4.4 19:13:56 10° NW 19:20:50 56° WSW 19:28:06 10° SSE
NOSS 3-4 (C) 4.4 19:14:02 10° NW 19:20:56 56° WSW 19:28:13 10° SSE
Cosmos 407 Rocket 4.2 19:20:11 10° NNW 19:25:09 51° WSW 19:30:09 10° S
BREEZE M DEB (TANK) 4.0 19:25:56 10° WNW 19:30:37 87° SSW 19:34:19 45° SE
Cosmos 1727 Rocket 4.3 19:29:55 10° SSW 19:36:03 62° W 19:38:31 36° NNW
Cosmos 2369 Rocket 2.7 19:32:30 10° SSW 19:36:50 54° SW 19:36:50 54° SW
FALCON 9 R/B 3.3 19:31:55 10° W 19:48:34 56° SSW 19:49:06 54° S
ATLAS 3B CENTAUR R/B 4.3 19:44:07 10° W 19:57:55 32° SSW 20:00:27 27° S
